Flag for Netherlands Weather past 2 weeks in Utrecht, Netherlands

45 °F

Passing clouds.

Feels Like: 42 °F
Forecast: 38 / 48 °F
Wind: 5 mph from North

Location: Amsterdam Schiphol Airport

Current Time: Oct 14, 2015 at 4:49:06 AM

Latest Report: Oct 14, 2015 at 4:25 AM

Visibility: N/A

Pressure: 30.12 "Hg

Humidity: 93%

Dew point: 43 °F

Location of UtrechtLocation

Historic Weather in Utrecht — Graph


Utrecht temperature yesterday

Maximum temperature yesterday: 46 °F (at 1:55 PM)
Minimum temperature yesterday: 41 °F (at 12:25 AM)
Average temperature yesterday: 43 °F

Past Weeks' High & Low Weather Summary

High64 °F (Oct 3, 4:25 PM)100% (Sep 29, 7:55 AM)30.66 "Hg (Sep 29, 7:55 AM)
Low36 °F (Oct 12, 6:55 AM)54% (Oct 11, 4:25 PM)29.53 "Hg (Oct 6, 2:55 PM)
Average53 °F84%30.11 "Hg
* Reported Sep 29 3:25 AM — Oct 14 3:25 AM, Utrecht, Weather by CustomWeather, © 2015

Note: Actual official high and low records may vary slightly from our data, if they occured in-between our weather recording intervals... More about our weather records


Utrecht weather history for previous 24 hours

Time TempWeatherWind HumidityBarometerVisibility
3:25 AM
Wed, Oct 14
45 °FPassing clouds.5 mph93%30.15 "HgN/A
2:55 AM43 °FPassing clouds.3 mph100%30.15 "HgN/A
2:25 AM45 °FPartly cloudy.5 mph93%30.15 "HgN/A
1:55 AM43 °FPassing clouds.5 mph100%30.15 "HgN/A
1:25 AM43 °FClear.2 mph93%30.15 "Hg10 mi
12:55 AM45 °FPassing clouds.5 mph93%30.18 "HgN/A
12:25 AM45 °FPassing clouds.3 mph87%30.18 "HgN/A
11:55 PM
Tue, Oct 13
45 °FPassing clouds.5 mph87%30.18 "HgN/A
11:25 PM46 °FLight rain. Passing clouds.5 mph82%30.18 "HgN/A
10:55 PM46 °FScattered showers. Passing clouds.6 mph76%30.18 "HgN/A
10:25 PM46 °FPassing clouds.6 mph76%30.18 "HgN/A
9:55 PM46 °FPassing clouds.6 mph82%30.18 "HgN/A
9:25 PM45 °FPassing clouds.6 mph81%30.18 "HgN/A
8:55 PM45 °FPassing clouds.5 mph76%30.18 "HgN/A
8:25 PM46 °FPassing clouds.9 mph76%30.18 "HgN/A
7:55 PM45 °FPassing clouds.10 mph81%30.15 "HgN/A
7:25 PM45 °FPassing clouds.10 mph76%30.15 "HgN/A
6:55 PM46 °FScattered clouds.9 mph71%30.15 "HgN/A
6:25 PM46 °FScattered clouds.13 mph71%30.15 "HgN/A
5:55 PM46 °FPassing clouds.16 mph66%30.15 "HgN/A
5:25 PM46 °FPassing clouds.17 mph66%30.15 "HgN/A
4:55 PM46 °FPassing clouds.14 mph66%30.15 "HgN/A
4:25 PM46 °FScattered clouds.16 mph71%30.15 "HgN/A
3:55 PM45 °FScattered clouds.15 mph71%30.15 "HgN/A
3:25 PM45 °FPartly sunny.15 mph71%30.15 "HgN/A
2:55 PM45 °FPartly sunny.20 mph71%30.15 "HgN/A
2:25 PM45 °FPartly sunny.21 mph71%30.15 "HgN/A
1:55 PM46 °FScattered clouds.18 mph71%30.15 "HgN/A
1:25 PM45 °FPartly sunny.20 mph71%30.12 "HgN/A
12:55 PM43 °FScattered clouds.20 mph76%30.12 "HgN/A
12:25 PM43 °FPartly sunny.17 mph81%30.12 "HgN/A
11:55 AM43 °FPartly sunny.20 mph76%30.12 "HgN/A
11:25 AM43 °FPassing clouds.20 mph76%30.12 "HgN/A
10:55 AM43 °FPassing clouds.18 mph76%30.12 "HgN/A
10:25 AM43 °FPassing clouds.15 mph76%30.12 "HgN/A
9:55 AM43 °FPassing clouds.17 mph76%30.12 "HgN/A
9:25 AM43 °FPassing clouds.15 mph81%30.09 "HgN/A
8:55 AM41 °FPassing clouds.13 mph81%30.09 "HgN/A
8:25 AM41 °FPassing clouds.12 mph81%30.09 "HgN/A
7:55 AM41 °FPassing clouds.10 mph81%30.07 "HgN/A
7:25 AM41 °FPassing clouds.10 mph81%30.07 "HgN/A
6:55 AM41 °FPassing clouds.10 mph87%30.07 "HgN/A
6:25 AM41 °FPassing clouds.10 mph87%30.07 "HgN/A
5:55 AM41 °FPassing clouds.10 mph81%30.07 "HgN/A
5:25 AM41 °FPassing clouds.13 mph81%30.04 "HgN/A
4:55 AM41 °FClear.10 mph81%30.04 "Hg10 mi
4:25 AM41 °FPassing clouds.10 mph87%30.04 "HgN/A
Weather by CustomWeather, © 2015

See weather overviewHow to use our weather pages